Regional Weather Roundup
Issued by NWS Huntsville, AL

Home | Current Version | Previous Version | Text Only | Print | Product List | Glossary On
Versions: 1 2 3 4 5 6 7 8 9 10 11 12 13 14 15 16 17 18 19 20 21 22 23 24 25 26 27 28 29 30 31 32 33 34 35 36 37 38 39 40 41 42 43 44 45 46 47 48 49 50
000
ASUS44 KHUN 131110
RWRHUN

WEATHER ROUNDUP FOR THE TENNESSEE VALLEY
NATIONAL WEATHER SERVICE HUNTSVILLE AL
600 AM CDT SUN JUL 13 2014

ALZ001>004-131200-
NORTHWEST ALABAMA

CITY           SKY/WX    TMP DP  RH WIND       PRES   REMARKS
COURTLAND HCN    N/A     72 N/A N/A CALM        N/A
RUSSELLVILLE     N/A     68 N/A N/A MISG        N/A
SHOALS AIRPORT CLEAR     71  68  90 SE3       30.10R
SHOALS TVA RES   N/A     72 N/A N/A MISG        N/A
$$

ALZ005>007-016-131200-
NORTH CENTRAL ALABAMA

CITY           SKY/WX    TMP DP  RH WIND       PRES   REMARKS
CULLMAN AG STN   N/A     70 N/A N/A CALM        N/A
DECATUR AP     CLEAR     72  70  93 CALM      30.10R FOG
HUNTSVILLE AP  PTCLDY    75  71  87 E5        30.10R
MERIDIANVILLE  CLEAR     70  66  88 CALM      30.11R FOG
VINEMONT AP    FAIR      71  69  95 CALM      30.13R
$$

ALZ008>010-131200-
NORTHEAST ALABAMA

CITY           SKY/WX    TMP DP  RH WIND       PRES   REMARKS
ALBERTVILLE    CLEAR     70  70 100 CALM      30.12R
FORT PAYNE     CLEAR    N/A N/A N/A CALM      30.12R HAZE
SCOTTSBORO AP  FOG       72  72 100 CALM      30.12R VSB<1/4
SCOTTSBORO HCN   N/A     70 N/A N/A MISG        N/A
VALLEY HEAD      N/A     66 N/A N/A MISG        N/A
$$

TNZ076-096-097-131200-
SOUTHEASTERN MIDDLE TENNESSEE

CITY           SKY/WX    TMP DP  RH WIND       PRES   REMARKS
FAYETTEVILLE   CLEAR     73  70  88 S7        30.12R
TULLAHOMA      CLEAR     70  68  94 CALM      30.13R
WINCHESTER     CLEAR     72  70  94 CALM      30.13R
$$

...SURROUNDING SITES...

CITY           SKY/WX    TMP DP  RH WIND       PRES   REMARKS
ATLANTA        PTCLDY    72  69  90 SE5       30.14R
ANNISTON       CLEAR     72  69  90 CALM      30.12R
BIRMINGHAM     PTCLDY    76  70  82 SE3       30.13R
CHATTANOOGA    MOCLDY    73  69  87 CALM      30.12R FOG
CORINTH        FAIR      68  66  94 CALM      30.08R FOG
DALTON         CLEAR     70  70 100 CALM      30.13R
GADSDEN        CLEAR     70  66  88 CALM      30.10S
GOLDEN TRNGL   CLEAR     75  68  78 CALM      30.07S
HALEYVILLE     FAIR      69  69 100 CALM      30.14R FOG
JACKSON TN     CLEAR     69  66  90 CALM      30.08R FOG
LEWISBURG      FAIR      68  66  93 CALM      30.09R
MEMPHIS        PTCLDY    76  71  85 CALM      30.06R
MURFREESBORO   FAIR      72  68  87 CALM      30.08R
NASHVILLE      PTCLDY    73  68  84 CALM      30.09R
ROME           CLEAR     70  69  97 CALM      30.11R FOG
SAVANNAH       CLEAR     66  66 100 CALM      30.09R
TUPELO         CLEAR     73  70  90 CALM      30.08R FOG
TUSCALOOSA     MOCLDY    73  72  96 CALM      30.09R FOG
$$

...GULF COAST WEATHER...

CITY           SKY/WX    TMP DP  RH WIND       PRES   REMARKS
GULFPORT       PTCLDY    77  72  84 CALM      30.06R
PASCAGOULA     MOCLDY    74  73  97 CALM      30.07R FOG
MOBILE         PTCLDY    75  75 100 CALM      30.09R FOG
GULF SHORES    MOSUNNY   74  73  96 CALM      30.07S
PENSACOLA      PTCLDY    73  73 100 N5        30.07R
DESTIN         CLEAR     77  76  96 E3        30.09R
PANAMA CITY    DRIZZLE   75  75 100 E3        30.12R
APPALACHICOLA  MOCLDY    79  71  76 S13G20    30.11R
$$



USA.gov is the U.S. government's official web portal to all federal, state and local government web resources and services.